Wind_Speed
9 8 8 7 6 5 4 4 5 6 6 6 6 6 5 5 4 4 4 3 2 1 1 1 1 3 4 4 5 6 6 7 8 9 9 9 9 9 9 8 8 7 7 7 6 6 5 5 4
10 9 9 8 7 5 4 4 5 6 7 7 6 6 6 5 5 5 4 3 2 2 1 0 1 2 3 4 4 5 6 7 8 8 9 9 9 9 9 8 8 8 7 7 6 6 6 5 5
11 10 9 8 7 6 5 5 5 6 7 7 7 7 6 5 5 5 4 4 2 2 2 1 1 2 3 4 4 5 6 7 8 8 8 9 9 9 9 8 8 8 7 7 6 6 6 6 5
12 12 10 9 8 7 6 6 5 5 6 6 6 7 6 5 5 5 5 4 3 2 1 0 1 2 3 3 4 5 6 7 7 7 8 8 9 9 8 8 8 8 7 7 6 6 6 6 5
13 12 11 9 8 7 7 7 6 6 6 6 7 7 6 5 5 5 4 3 2 1 1 1 1 2 3 3 4 5 6 6 7 7 8 8 9 8 8 8 8 7 7 7 6 5 5 5 5
14 13 12 10 9 9 8 7 7 7 6 6 7 7 7 6 6 5 4 4 3 2 2 1 1 2 3 3 3 4 5 6 6 7 8 8 9 8 8 7 7 7 7 6 6 5 5 5 5
14 14 12 11 10 9 9 8 7 8 7 7 8 8 8 7 6 6 6 5 3 3 2 1 0 2 2 3 4 4 5 6 6 7 8 8 9 8 8 8 7 7 7 6 6 5 5 5 5
14 14 13 12 11 10 9 8 8 8 8 8 8 8 8 8 7 7 7 6 4 4 2 1 1 1 2 3 3 4 5 6 7 7 8 8 9 9 8 8 7 7 7 6 6 6 6 5 5
15 14 13 13 12 11 10 9 8 8 8 8 8 8 8 9 8 8 7 6 5 4 2 2 1 0 1 2 3 4 4 5 6 7 8 8 8 8 8 8 7 7 7 6 6 6 6 5 5
15 14 13 13 12 11 10 9 9 8 9 9 9 8 8 8 7 7 6 5 4 3 2 1 1 1 1 2 3 3 4 5 6 7 7 7 8 8 8 8 8 8 7 6 6 6 6 6 5
15 15 14 14 13 12 10 10 9 8 10 11 10 9 9 9 8 7 6 5 5 4 3 2 1 1 2 2 3 4 4 5 6 7 7 7 7 7 8 8 8 7 7 7 6 6 6 6 5
15 15 15 14 13 12 11 11 11 10 10 11 10 10 11 9 8 7 7 5 4 4 3 2 1 1 2 2 3 4 5 6 6 7 7 7 7 7 8 8 8 7 7 7 6 6 6 6 5
14 14 14 14 13 12 12 11 11 10 11 11 12 12 11 10 9 7 7 6 5 4 3 2 1 1 1 2 2 3 4 5 6 7 7 7 7 7 7 8 8 8 7 7 7 6 6 5 5
14 14 13 13 13 13 12 11 10 10 11 11 12 12 11 11 10 8 7 6 6 4 3 2 2 1 1 1 2 3 3 4 5 6 7 7 7 7 7 8 8 8 8 7 7 7 6 6 5
14 14 14 14 14 13 12 11 11 10 11 12 12 12 12 12 10 9 8 7 6 5 4 3 2 1 0 1 1 2 3 4 5 6 7 7 7 8 8 8 8 8 8 7 6 6 6 6 5
13 14 15 14 13 13 12 12 11 12 12 12 12 12 12 11 10 10 9 8 7 5 5 4 2 2 1 0 1 2 3 4 5 6 7 6 7 8 8 8 8 8 8 7 6 6 6 6 5
12 13 13 13 12 12 13 13 12 12 13 13 12 12 12 11 11 11 10 8 7 6 5 4 3 3 2 1 0 1 2 3 4 5 6 6 7 8 8 8 8 8 7 7 6 6 6 6 5
10 12 13 12 12 12 13 12 11 11 13 14 14 13 13 12 11 11 10 8 7 6 6 5 4 3 2 1 0 1 2 3 4 5 5 6 6 7 8 8 8 8 7 7 6 6 5 5 5
9 10 11 11 11 12 12 12 11 12 13 14 14 14 13 12 11 10 9 8 8 7 6 5 4 3 2 1 1 0 1 2 3 4 4 5 6 7 7 8 8 8 7 7 7 7 6 6 5
7 9 9 9 11 12 12 11 12 12 13 14 15 14 13 12 12 11 10 9 8 7 6 5 4 4 3 2 1 1 1 2 3 3 4 4 5 6 7 7 8 7 7 7 7 7 7 6 6
6 8 9 9 10 11 11 10 11 12 13 14 14 14 14 13 13 12 11 10 9 8 7 6 5 5 4 3 2 2 2 2 2 3 3 3 3 4 5 6 7 7 7 7 7 6 6 7 6
5 7 9 8 9 10 10 10 10 10 11 13 14 14 14 13 13 12 11 10 9 8 7 7 5 5 5 4 3 2 2 1 2 2 2 3 3 3 4 5 5 6 6 6 6 6 6 6 6
5 5 7 7 9 9 9 10 10 10 10 12 13 13 14 13 13 13 12 10 9 9 8 7 5 5 5 5 4 4 3 3 2 2 2 3 2 2 3 4 4 4 5 5 5 5 5 5 5
5 6 6 7 7 8 8 9 10 9 10 11 12 13 14 13 13 12 12 11 10 9 8 7 6 6 6 6 5 5 4 4 3 3 3 3 3 3 3 3 3 3 3 4 4 4 4 5 4
6 7 7 7 7 6 7 8 9 9 9 10 12 12 13 13 12 12 11 10 10 9 9 8 7 7 7 7 7 6 6 5 5 4 4 4 4 4 4 3 3 3 3 3 3 4 4 4 4
6 6 7 7 7 6 6 7 8 9 9 9 10 11 12 12 12 11 11 10 10 10 9 8 8 8 8 8 8 7 6 6 6 6 5 5 5 5 5 5 5 4 4 4 4 4 4 4 4
6 6 6 6 6 5 5 6 7 8 8 9 9 10 11 11 11 12 12 11 10 9 9 8 8 9 9 9 9 8 7 7 7 7 7 7 7 7 7 7 6 6 6 5 5 4 4 4 5
6 6 6 6 5 5 5 6 7 8 8 8 9 9 10 11 11 11 12 11 10 10 9 9 9 9 9 9 9 9 9 8 8 8 7 8 8 8 9 8 7 7 7 7 6 5 5 5 5
7 6 6 6 6 5 6 6 8 8 7 7 8 8 9 10 11 11 11 11 11 10 10 9 9 9 9 9 9 9 9 9 9 9 9 9 9 9 9 9 9 8 8 8 8 7 7 7 7
7 8 8 7 7 6 6 6 7 7 6 7 8 8 9 10 11 11 11 11 11 11 11 10 9 9 9 9 10 10 10 10 10 10 10 10 10 10 10 9 9 9 9 9 9 8 9 9 9
Wind_Direction
226 228 228 230 227 225 226 224 218 213 209 200 199 188 190 186 179 176 175 178 182 189 127 64 16 25 11 12 13 10 3 1 2 0 359 358 355 352 350 347 344 342 339 336 333 328 328 329 325
228 231 233 235 232 234 229 221 221 216 215 208 201 197 202 193 181 175 173 180 189 210 205 317 34 16 6 6 6 4 2 1 1 1 359 358 355 353 349 348 348 343 340 337 335 332 330 332 329
228 230 233 234 232 227 228 223 223 221 213 205 198 196 199 195 187 183 182 188 192 205 230 262 25 14 9 8 4 4 3 2 2 2 1 358 354 352 349 348 347 345 341 338 337 337 333 332 328
227 227 231 233 231 228 225 227 220 226 216 199 198 191 194 197 189 190 190 185 187 211 222 150 30 17 9 2 359 359 2 3 1 359 357 354 349 347 348 348 347 348 346 342 339 338 336 334 330
226 228 230 233 233 235 228 224 223 215 217 207 198 194 194 195 192 190 192 193 189 195 179 172 8 5 359 351 355 358 1 1 357 356 354 352 349 346 345 347 347 348 346 344 340 336 333 331 331
226 228 232 234 235 235 232 232 222 215 220 214 201 197 197 197 195 197 196 190 194 193 196 203 337 355 352 354 354 1 2 3 1 356 353 350 348 347 348 348 346 343 344 344 341 337 334 328 328
226 227 231 234 235 235 236 237 232 226 222 211 207 205 200 201 199 202 194 188 190 194 196 209 275 342 351 359 4 3 4 6 3 357 353 351 351 351 352 353 350 345 343 345 344 338 335 334 331
227 228 230 234 234 232 235 238 232 225 224 213 202 198 199 195 193 189 188 190 192 193 194 199 220 324 347 357 5 4 1 2 360 356 353 352 353 354 356 356 353 350 349 345 341 341 336 336 336
228 227 228 231 234 235 231 232 229 225 220 211 204 201 200 192 188 188 187 187 185 184 186 178 185 322 350 0 3 359 358 360 359 356 355 356 358 358 2 0 357 354 352 350 346 348 346 343 342
227 228 228 230 233 235 228 225 220 220 215 205 203 198 190 186 188 188 183 185 184 181 180 176 171 55 19 14 8 5 5 5 2 1 2 2 3 4 6 5 2 359 357 356 353 350 353 353 349
226 228 229 231 234 235 230 225 219 215 205 197 199 195 191 190 191 187 184 187 185 191 196 188 161 57 34 30 25 22 18 15 12 10 8 5 5 6 6 3 0 359 359 359 360 358 360 1 0
224 223 226 229 229 229 228 227 220 212 206 203 201 196 194 192 189 186 185 185 187 192 193 193 158 62 41 36 29 23 20 18 15 14 11 11 12 12 11 6 4 4 2 1 360 1 5 8 10
221 220 222 224 225 223 223 226 219 211 207 206 202 201 201 200 198 194 192 189 190 191 197 191 148 83 55 38 26 26 22 19 17 16 18 20 22 22 18 12 10 9 8 9 10 12 15 22 27
218 219 218 218 217 219 220 225 218 214 209 207 204 203 200 200 196 193 193 194 193 191 186 184 163 132 79 32 20 29 23 23 24 20 20 24 27 26 19 15 12 12 13 15 18 21 24 30 35
218 216 220 219 219 220 219 226 221 210 211 209 205 203 198 199 196 197 197 197 192 185 185 183 163 152 113 12 20 33 29 29 27 23 21 24 26 25 20 16 14 15 15 19 24 29 30 34 41
217 218 222 218 215 212 215 220 218 211 209 207 205 202 195 195 195 200 200 199 196 196 193 193 186 205 231 323 23 30 19 17 18 17 18 22 24 21 19 18 20 19 18 21 26 32 36 39 43
209 210 212 209 209 209 214 215 213 210 205 201 199 196 193 194 196 200 200 199 201 201 200 198 199 212 217 226 58 19 10 11 11 13 16 22 20 18 17 18 20 21 23 25 27 31 37 43 48
203 201 204 205 207 208 211 211 207 204 202 201 200 197 192 193 195 198 199 200 203 205 208 204 204 211 215 210 193 351 358 3 4 9 16 21 20 20 21 22 23 25 29 33 35 35 38 43 48
202 196 197 201 209 210 208 212 211 202 198 197 197 195 195 196 195 196 200 204 208 210 209 208 206 206 214 220 228 317 349 357 2 11 18 20 22 25 26 25 26 30 34 38 42 43 44 46 50
194 193 199 202 209 210 208 211 210 207 203 201 199 197 199 201 200 201 202 207 209 208 210 211 211 214 218 221 234 288 327 350 359 11 19 19 22 25 24 27 28 31 35 38 43 47 51 51 52
186 189 199 202 203 208 206 207 209 206 203 203 201 200 202 203 203 203 202 205 209 213 218 220 222 221 218 223 239 266 300 333 351 358 9 13 18 20 26 30 31 33 35 37 41 46 50 51 51
192 189 198 201 199 201 203 201 205 208 207 200 199 202 204 203 205 204 207 212 214 216 221 223 223 224 225 230 239 254 277 300 326 337 345 356 1 12 20 26 29 33 35 37 40 43 44 45 44
182 190 194 203 205 205 203 206 207 208 210 206 204 206 207 207 211 211 214 217 222 222 220 220 223 227 230 235 243 250 262 270 285 304 317 327 334 347 358 10 17 21 27 29 29 29 33 32 30
186 198 204 205 206 209 211 209 206 208 212 214 214 212 213 213 213 216 219 222 227 226 224 223 226 235 236 238 243 247 254 261 268 277 291 299 306 318 324 339 352 357 2 6 5 5 10 14 15
186 196 198 199 202 211 208 204 203 206 210 213 214 216 218 217 216 220 223 225 230 231 228 228 232 238 240 240 241 244 251 259 263 266 271 279 288 298 305 307 320 325 322 329 340 343 349 357 358
189 193 198 197 201 209 202 197 198 205 210 213 214 215 217 217 218 221 221 226 229 229 228 232 238 244 243 239 240 242 250 258 262 265 268 272 278 286 290 294 293 298 298 303 314 319 329 337 341
196 202 201 203 203 210 205 199 207 212 216 215 213 211 213 218 221 221 222 227 230 228 229 235 244 247 241 239 242 245 251 258 262 265 267 269 273 280 283 286 289 286 290 290 291 307 322 331 337
206 209 211 210 211 219 213 213 216 216 217 217 214 213 216 217 221 221 221 227 230 231 235 240 244 245 242 241 246 251 255 259 263 267 268 270 275 279 280 281 281 279 283 285 282 292 303 309 313
213 212 207 212 215 219 220 220 224 225 223 219 217 220 223 222 222 222 225 229 233 237 240 240 244 244 243 244 249 255 259 265 266 268 269 270 274 277 280 281 279 276 277 279 273 280 289 297 300
219 218 215 219 217 219 228 226 230 227 228 228 227 229 229 227 224 226 229 232 236 238 242 243 243 247 251 252 253 257 262 269 270 271 271 270 273 275 277 279 279 277 276 276 272 279 285 290 294
Height
5866 5867 5869 5871 5872 5872 5872 5873 5873 5874 5876 5877 5878 5879 5880 5881 5883 5886 5885 5884 5885 5885 5885 5885 5885 5885 5884 5884 5884 5883 5883 5882 5881 5880 5879 5879 5878 5877 5876 5875 5874 5873 5873 5873 5872 5872 5872 5871 5871
5865 5867 5869 5870 5871 5871 5872 5873 5873 5874 5875 5876 5877 5878 5880 5880 5882 5883 5883 5884 5885 5885 5885 5885 5885 5885 5885 5884 5884 5884 5883 5882 5881 5880 5880 5879 5878 5877 5876 5875 5874 5873 5872 5872 5871 5871 5871 5870 5870
5864 5866 5868 5869 5869 5871 5872 5872 5872 5873 5874 5875 5876 5878 5879 5880 5881 5882 5883 5884 5884 5885 5885 5885 5885 5885 5885 5885 5884 5884 5883 5882 5881 5880 5880 5879 5878 5877 5876 5875 5874 5873 5872 5871 5871 5870 5870 5869 5869
5863 5866 5867 5868 5869 5870 5871 5872 5872 5873 5874 5875 5876 5877 5878 5880 5881 5882 5883 5884 5884 5885 5885 5885 5885 5885 5885 5885 5884 5884 5883 5882 5881 5880 5880 5879 5878 5877 5876 5874 5873 5872 5872 5871 5870 5869 5869 5868 5868
5862 5864 5866 5867 5868 5869 5870 5871 5872 5872 5873 5874 5875 5877 5878 5879 5880 5881 5882 5883 5884 5885 5885 5885 5885 5885 5885 5885 5884 5884 5883 5882 5881 5880 5880 5878 5877 5876 5875 5874 5873 5872 5871 5870 5869 5869 5868 5868 5867
5861 5863 5865 5866 5867 5868 5869 5870 5871 5872 5873 5874 5875 5876 5877 5879 5880 5881 5882 5883 5884 5885 5885 5885 5886 5885 5885 5885 5884 5884 5883 5882 5881 5880 5879 5878 5877 5876 5875 5874 5873 5871 5870 5869 5869 5868 5867 5867 5866
5860 5862 5863 5864 5866 5867 5869 5869 5870 5871 5872 5873 5875 5876 5877 5878 5879 5881 5882 5883 5884 5884 5885 5885 5885 5885 5885 5885 5884 5884 5883 5882 5881 5880 5879 5878 5877 5876 5874 5873 5872 5871 5870 5869 5868 5867 5866 5866 5865
5857 5860 5861 5862 5864 5866 5867 5868 5869 5870 5872 5873 5874 5875 5876 5878 5879 5880 5882 5883 5884 5884 5885 5885 5885 5885 5885 5885 5884 5884 5883 5882 5881 5880 5879 5878 5876 5875 5874 5873 5872 5870 5869 5868 5867 5866 5865 5864 5864
5855 5859 5859 5861 5863 5864 5866 5867 5868 5869 5871 5872 5874 5875 5876 5877 5878 5880 5881 5882 5883 5884 5885 5885 5885 5885 5885 5885 5884 5884 5883 5882 5881 5880 5879 5877 5876 5875 5874 5872 5871 5870 5869 5867 5866 5865 5864 5863 5862
5853 5855 5857 5859 5861 5863 5864 5866 5867 5869 5870 5871 5873 5874 5875 5877 5878 5880 5881 5882 5883 5884 5884 5885 5885 5885 5885 5884 5884 5883 5883 5882 5881 5880 5878 5877 5876 5874 5873 5872 5871 5869 5868 5867 5866 5864 5863 5862 5861
5850 5853 5855 5857 5859 5861 5863 5864 5866 5867 5869 5870 5872 5874 5875 5877 5878 5880 5881 5882 5883 5884 5884 5885 5885 5885 5885 5884 5884 5883 5883 5882 5881 5879 5878 5877 5876 5874 5873 5872 5870 5869 5868 5866 5865 5864 5862 5862 5861
5848 5850 5853 5855 5857 5859 5861 5863 5865 5866 5868 5870 5871 5873 5875 5876 5878 5879 5881 5882 5883 5883 5884 5884 5885 5885 5885 5884 5884 5883 5883 5882 5881 5879 5878 5877 5875 5874 5873 5871 5870 5869 5867 5866 5864 5863 5862 5861 5860
5846 5848 5851 5853 5855 5858 5860 5862 5864 5865 5867 5869 5870 5872 5874 5876 5877 5879 5880 5881 5882 5883 5883 5884 5884 5885 5885 5884 5884 5883 5883 5882 5881 5879 5878 5877 5875 5874 5873 5871 5870 5868 5867 5865 5864 5863 5862 5861 5860
5844 5846 5849 5851 5854 5856 5858 5860 5862 5864 5865 5868 5869 5871 5873 5875 5877 5878 5880 5881 5882 5882 5883 5884 5884 5884 5885 5884 5884 5883 5883 5882 5881 5880 5878 5877 5876 5874 5873 5871 5869 5868 5866 5865 5863 5862 5861 5861 5860
5842 5845 5847 5849 5852 5854 5857 5859 5861 5863 5864 5866 5868 5870 5872 5874 5876 5877 5879 5880 5881 5882 5882 5883 5884 5884 5884 5884 5884 5883 5883 5882 5881 5880 5879 5877 5876 5874 5873 5871 5869 5867 5866 5864 5863 5862 5861 5861 5860
5840 5843 5845 5848 5850 5853 5857 5858 5860 5861 5863 5865 5867 5869 5871 5873 5875 5877 5878 5879 5880 5881 5882 5883 5884 5884 5884 5884 5884 5883 5883 5882 5881 5880 5879 5877 5876 5874 5873 5871 5869 5867 5866 5864 5863 5862 5861 5861 5860
5839 5841 5844 5847 5849 5851 5854 5856 5858 5859 5861 5863 5866 5868 5870 5872 5874 5876 5877 5879 5880 5881 5882 5882 5883 5884 5884 5884 5884 5883 5883 5882 5881 5880 5879 5877 5876 5875 5873 5871 5869 5867 5866 5865 5863 5862 5861 5861 5860
5839 5841 5843 5846 5848 5851 5853 5855 5857 5858 5860 5862 5864 5867 5869 5871 5873 5875 5877 5878 5879 5880 5881 5882 5883 5883 5883 5883 5883 5883 5883 5882 5881 5880 5879 5877 5876 5875 5873 5871 5869 5867 5866 5865 5863 5862 5862 5861 5861
5838 5840 5843 5845 5848 5850 5851 5854 5856 5857 5859 5861 5863 5866 5868 5870 5872 5874 5876 5877 5878 5879 5880 5881 5882 5882 5883 5883 5883 5883 5882 5882 5881 5880 5878 5877 5876 5875 5873 5871 5870 5868 5866 5865 5864 5863 5862 5862 5861
5838 5841 5842 5845 5847 5849 5851 5852 5854 5856 5858 5860 5862 5865 5867 5869 5871 5873 5875 5876 5877 5879 5879 5880 5881 5881 5882 5882 5882 5882 5882 5881 5880 5879 5878 5877 5876 5875 5874 5872 5870 5868 5867 5866 5865 5864 5863 5863 5862
5839 5841 5843 5845 5846 5848 5850 5852 5854 5855 5857 5859 5861 5863 5866 5868 5870 5872 5873 5875 5876 5878 5878 5879 5880 5880 5881 5881 5881 5881 5881 5880 5880 5879 5878 5877 5876 5875 5874 5872 5871 5869 5868 5867 5866 5865 5864 5863 5863
5839 5841 5842 5844 5846 5848 5851 5852 5853 5854 5856 5858 5860 5862 5864 5866 5868 5870 5872 5874 5875 5876 5877 5878 5878 5879 5879 5880 5880 5880 5880 5879 5879 5878 5878 5877 5876 5875 5874 5872 5871 5870 5869 5868 5867 5866 5865 5865 5864
5840 5841 5843 5844 5846 5848 5849 5851 5854 5854 5855 5857 5859 5861 5863 5865 5867 5869 5871 5872 5873 5875 5875 5876 5877 5877 5878 5878 5879 5879 5879 5878 5878 5877 5877 5876 5875 5874 5873 5872 5871 5870 5870 5869 5868 5867 5866 5865 5865
5841 5842 5843 5844 5846 5848 5849 5851 5853 5854 5855 5856 5858 5860 5862 5864 5866 5867 5869 5870 5872 5873 5874 5874 5875 5876 5876 5877 5877 5877 5877 5877 5877 5876 5876 5875 5875 5874 5873 5872 5871 5870 5870 5869 5868 5867 5866 5866 5865
5842 5843 5844 5845 5846 5848 5848 5850 5852 5853 5854 5855 5857 5858 5860 5862 5864 5866 5867 5869 5870 5871 5872 5873 5873 5874 5874 5875 5875 5875 5875 5875 5875 5875 5874 5874 5873 5873 5872 5871 5870 5869 5869 5868 5868 5867 5867 5866 5865
5842 5844 5845 5846 5846 5847 5848 5849 5852 5852 5853 5854 5856 5857 5859 5861 5862 5864 5865 5867 5868 5869 5870 5871 5871 5872 5872 5873 5873 5873 5874 5874 5874 5873 5873 5872 5872 5871 5870 5869 5869 5868 5868 5867 5867 5867 5866 5866 5865
5842 5843 5844 5846 5846 5847 5848 5850 5851 5852 5853 5853 5855 5856 5857 5859 5860 5862 5864 5865 5866 5867 5868 5868 5869 5870 5870 5871 5871 5872 5872 5871 5871 5871 5871 5870 5870 5869 5868 5867 5866 5866 5866 5866 5866 5866 5865 5865 5864
5842 5843 5844 5845 5846 5847 5848 5849 5851 5851 5852 5853 5853 5855 5856 5857 5859 5860 5862 5863 5864 5865 5865 5866 5867 5867 5868 5868 5869 5869 5869 5869 5869 5869 5868 5868 5867 5866 5865 5864 5864 5864 5863 5863 5864 5864 5864 5864 5864
5842 5843 5844 5845 5846 5847 5848 5851 5850 5851 5851 5852 5853 5853 5855 5856 5857 5858 5859 5861 5861 5862 5863 5864 5865 5865 5866 5866 5867 5867 5867 5867 5866 5866 5865 5864 5864 5863 5862 5861 5861 5861 5861 5861 5861 5862 5863 5863 5862
5840 5841 5843 5845 5845 5846 5847 5852 5849 5850 5850 5851 5852 5852 5853 5854 5855 5856 5857 5858 5859 5860 5861 5862 5862 5863 5864 5864 5864 5864 5864 5864 5863 5862 5862 5861 5860 5860 5859 5858 5858 5858 5858 5858 5859 5860 5861 5861 5861